Weather in Smarhon

Belarus     54°28′53″N   26°24′09″E
temp.,
°C
wind,
m/s
gust,
m/s
humid.,
%
clouds,
%
prec.,
mm/h
press.,
hPa
HPBL,
m
19 april, mon
mon1900:00+7ese11690 0.0 102113
03:00+5nne22740 0.0 102112
06:00+4ne22790 0.0 102128
09:00+9ese36751 0.0 1021376
12:00+13e47527 0.0 10211752
15:00+12e5756100 0.1 10211284
18:00+11ene386499 0.0 1021747
21:00+8ne267590 0.0 1021147
20 april, tue
tue2000:00+6e258947 0.1 1021113
03:00+6ene2694100 0.1 1020178
06:00+5ne249799 0.0 1019125
09:00+8ne3582100 0.2 1018546
12:00+7ne4587100 0.9 1017895
15:00+8ene3479100 1.1 1015795
18:00+8ne347698 0.1 1014565
21:00+5ne228639 0.1 101317
21 april, wed
wed2100:00+5e118489 0.0 101222
03:00+4wnw238594 0.0 101094
06:00+4nnw1293100 0.7 1009329
09:00+5nnw138685 1.6 1009378
12:00+7nw3565100 0.1 10081312
15:00+9nw365699 0.1 10081309
18:00+10nw355779 0.0 10081053
21:00+6s227498 0.0 100825
22 april, thu
thu2200:00+5ssw3107814 0.0 1008174
03:00+4ssw379097 0.0 1008125
06:00+5ssw31090100 0.1 1007277
09:00+5wnw5792100 1.0 1009725
12:00+9sw695166 0.1 10101684
15:00+10sw71140100 0.1 10112159
18:00+9sw6104987 0.0 10112230
21:00+6ssw4106086 0.0 1012337
23 april, fri
fri2300:00+4sw4106991 0.0 1012363
03:00+3ssw387137 0.0 1012288
06:00+1ssw411833 0.0 1011331
09:00+3wsw697999 0.0 1012955
12:00+4wsw5974100 0.0 10141019
15:00+7w586191 0.1 10141526
18:00+7w4766100 0.4 10141129
21:00+3w268673 0.6 1016144